Location: Avenches
(46.8809°N, 7.0410°E)
Time: 13:13:34
(UTC+00:00)

CZ-4C R/B - Pass Details

Date: 30 March 2020
Orbit: 637 x 1365 km, 63.4° (Epoch: 28 May)

Event Time Altitude Azimuth Distance (km) Brightness Sun altitude
Rises 18:49:10 0° 276° (W) 3,254 7.3 -9.2°
Reaches altitude 10° 18:51:59 10° 292° (WNW) 2,436 6.3 -9.7°
Maximum altitude 18:56:21 22° 342° (NNW) 1,893 4.5 -10.4°
Drops below altitude 10° 19:01:20 10° 32° (NNE) 2,828 4.8 -11.2°
Sets 19:04:54 0° 47° (NE) 3,928 5.4 -11.8°
